Regional Weather Roundup
Issued by NWS Kansas City/Pleasant Hill, MO

Home | Current Version | Previous Version | Text Only | Print | Product List | Glossary On
Versions: 1 2 3 4 5 6 7 8 9 10 11 12 13 14 15 16 17 18 19 20 21 22 23 24 25 26 27 28 29 30 31 32 33 34 35 36 37 38 39 40 41 42 43 44 45 46 47 48 49 50
000
ASUS43 KEAX 261411
RWREAX

WEATHER ROUNDUP FOR EASTERN KANSAS AND NORTHWEST MISSOURI
NATIONAL WEATHER SERVICE KANSAS CITY/PLEASANT HILL MO
800 AM CST MON JAN 26 2015

KSZ040-057-103>105-MOZ028-029-037-043-261500-
...KANSAS CITY METROPOLITAN AREA...

CITY           SKY/WX    TMP DP  RH WIND       PRES   REMARKS
K.C. INTL      PTCLDY    29  27  92 SW8       29.99F WCI  21
K.C. DOWNTOWN  CLEAR     30  27  88 S3        30.01F
LEES SUMMIT    CLEAR     29  26  89 SW7       30.02F WCI  22
OLATHE - IXD   CLEAR     29  27  92 SW10      30.02F WCI  20
OLATHE - OJC   CLEAR     29  27  92 S6        30.00F WCI  23
LAWRENCE       CLEAR     25  23  92 S3        30.01F

$$

MOZ001>008-011>017-020>025-030>033-038>040-044>046-053-054-261500-
...NORTHERN AND CENTRAL MISSOURI...

CITY           SKY/WX    TMP DP  RH WIND       PRES   REMARKS
ST. JOSEPH     CLEAR     25  23  92 S7        29.97F WCI  17
MOSBY          SUNNY     27  25  93 CALM      30.01S
WARRENSBURG    CLEAR     28  27  93 S6        30.04S WCI  22
WHITEMAN AFB   CLEAR     25  23  91 SW8       30.03F WCI  16
CLINTON        CLEAR     30  30 100 S7        30.06F FOG     WCI  23
SEDALIA        CLEAR     29  26  89 SW8       30.05F WCI  21
WARSAW         NOT AVBL
MARSHALL       CLEAR     30  28  93 S7        30.03F FOG     WCI  23
CHILLICOTHE      N/A     28  25  88 S6        30.00F WCI  22
KIRKSVILLE     CLOUDY    31  29  92 SW8       29.97F WCI  23

$$

MOZ041-047>049-056>058-063>065-088>090-097-261500-
...EASTERN AND SOUTHERN MISSOURI...

CITY           SKY/WX    TMP DP  RH WIND       PRES   REMARKS
ST. LOUIS INTL CLOUDY    29  21  72 W9        30.05F WCI  20
SPIRIT OF STL  MOCLDY    28  23  81 W5        30.05F WCI  23
COLUMBIA       CLOUDY    30  28  92 SW6       30.04F WCI  24
JEFFERSON CITY CLOUDY    33  28  81 CALM      30.07F
MEXICO         CLOUDY   N/A N/A N/A SW7       30.03F
HANNIBAL       CLOUDY    30  27  86 SW6       30.02R WCI  24
ROLLA          CLOUDY    30  26  85 SW7       30.01F WCI  23
LEBANON        CLOUDY    32  28  86 SW3       30.05F
OSAGE BEACH    CLOUDY    30  27  86 S6        30.04F WCI  24
SPRINGFIELD    CLEAR     28  25  88 S6        30.07S WCI  22
BRANSON        CLEAR     32  28  86 W5        30.09F WCI  27
NEVADA         CLEAR     28  28 100 SW6       30.08F WCI  22
JOPLIN         CLEAR     29  27  92 SW8       30.10S WCI  21
WEST PLAINS    CLOUDY    32  26  78 NW8G16    30.08R WCI  25

$$

IAZ060-094-KSZ022-034>040-054-083-096-NEZ052-066-093-261500-
...KANSAS...SOUTHEAST NEBRASKA AND IOWA...

CITY           SKY/WX    TMP DP  RH WIND       PRES   REMARKS
TOPEKA         CLEAR     29  26  89 CALM      30.00F
MANHATTAN      CLEAR     32  29  88 SW7       29.99R WCI  26
EMPORIA        CLEAR     28  26  92 SW6       30.00F WCI  22
CHANUTE        CLEAR     27  26  96 S8        30.06F WCI  19
WICHITA        PTCLDY    32  27  81 SW6       30.05R WCI  26
OMAHA          PTCLDY    28  26  92 SE7       29.88F WCI  21
LINCOLN        CLEAR     33  27  78 W5        29.92S WCI  29
FALLS CITY     CLEAR     25  23  92 SE3       29.93F
LAMONI         MOCLDY    27  25  92 S12       29.91F WCI  17
DES MOINES     MOCLDY    33  27  78 SW17      29.83F WCI  22

$$




USA.gov is the U.S. government's official web portal to all federal, state and local government web resources and services.